Weather History for KBAD - January, 2014

Change the Weather History Date:

Thursday, January 23, 2014

  Actual Average Record
Temperature  
Mean Temperature 36 °F -  
Max Temperature 42 °F 54 °F 77 °F (2002)
Min Temperature 29 °F 36 °F 24 °F (2003)
Degree Days  
Heating Degree Days 30    
Moisture  
Dew Point 15 °F    
Average Humidity 41    
Maximum Humidity 55    
Minimum Humidity 25    
Precipitation  
Precipitation 0.00 in - - ()
Sea Level Pressure  
Sea Level Pressure 30.50 in    
Wind  
Wind Speed 10 mph (NE)    
Max Wind Speed 16 mph    
Max Gust Speed 23 mph    
Visibility 10 miles    
Events Snow    
Averages and records for this station are not official NWS values.
T = Trace of Precipitation, MM = Missing Value Source: NWS Daily Summary

Daily Weather History Graph

Daily Weather History Graph

Search for Another Location

Airport or City:

Trip Planner

Search our weather history database for the weather conditions in past years. The results will help you decide how hot, cold, wet, or windy it might be!

Date:

Astronomy

Jan. 23, 2014 Rise Set
Actual Time 7:14 AM CST 5:39 PM CST
Civil Twilight 6:47 AM CST 6:05 PM CST
Nautical Twilight 6:17 AM CST 6:35 PM CST
Astronomical Twilight 5:48 AM CST 7:04 PM CST
Moon No Moon Rise 11:15 AM CST (1/23)
Length of Visible Light 11h 17m
Length of Day
10h 25m
Waning Gibbous, 55% of the Moon is Illuminated
Jan 23
Waning Gibbous
Jan 23
Last Quarter
Jan 30
New
Feb 6
First Quarter
Feb 14
Full

Hourly Weather History & Observations

Time (CST) Temp. Windchill Dew Point Humidity Pressure Visibility Wind Dir Wind Speed Gust Speed Precip Events Conditions
12:58 AM 42.3 °F 38.6 °F 26.6 °F 54% 30.19 in 10.0 mi ENE 5.8 mph - N/A   Partly Cloudy
1:58 AM 41.2 °F 35.5 °F 25.5 °F 54% 30.20 in 10.0 mi NE 9.2 mph - N/A   Mostly Cloudy
2:58 AM 41.4 °F 36.8 °F 25.3 °F 53% 30.23 in 10.0 mi NE 6.9 mph - N/A   Mostly Cloudy
3:58 AM 41.4 °F 36.2 °F 23.7 °F 50% 30.26 in 10.0 mi NE 8.1 mph - N/A   Mostly Cloudy
4:58 AM 40.1 °F 33.2 °F 22.6 °F 50% 30.29 in 10.0 mi NE 11.5 mph - N/A   Mostly Cloudy
5:58 AM 39.2 °F 32.5 °F 20.8 °F 48% 30.33 in 10.0 mi NE 10.4 mph - N/A   Overcast
6:58 AM 38.7 °F 31.4 °F 18.7 °F 45% 30.38 in 10.0 mi NE 11.5 mph - N/A   Overcast
7:58 AM 38.3 °F 30.9 °F 16.9 °F 42% 30.41 in 10.0 mi NE 11.5 mph 18.4 mph N/A   Overcast
8:58 AM 38.8 °F 30.8 °F 16.2 °F 40% 30.45 in 10.0 mi ENE 13.8 mph - N/A   Overcast
9:58 AM 39.9 °F 32.9 °F 15.6 °F 37% 30.48 in 10.0 mi ENE 11.5 mph 18.4 mph N/A   Overcast
10:58 AM 40.3 °F 32.2 °F 14.4 °F 35% 30.51 in 10.0 mi ENE 15.0 mph 20.7 mph N/A   Overcast
11:58 AM 40.3 °F 32.6 °F 14.0 °F 34% 30.51 in 10.0 mi NE 13.8 mph 23.0 mph N/A   Overcast
12:58 PM 39.7 °F 33.2 °F 14.4 °F 36% 30.51 in 10.0 mi NE 10.4 mph - N/A   Overcast
1:58 PM 39.2 °F 32.0 °F 15.3 °F 38% 30.53 in 10.0 mi NE 11.5 mph 20.7 mph N/A   Overcast
2:26 PM 39.2 °F 32.5 °F 17.6 °F 42% 30.50 in 10.0 mi NE 10.4 mph - N/A   Unknown
2:27 PM 39.2 °F 32.0 °F 17.6 °F 42% 30.51 in 10.0 mi NE 11.5 mph - N/A   Scattered Clouds
2:29 PM 39.2 °F 31.6 °F 17.6 °F 42% 30.50 in 10.0 mi NNE 12.7 mph - N/A   Unknown
2:39 PM 39.2 °F 30.5 °F 17.6 °F 42% 30.51 in 10.0 mi NE 16.1 mph 20.7 mph N/A   Mostly Cloudy
2:58 PM 37.8 °F 29.4 °F 19.0 °F 47% 30.55 in 10.0 mi NNE 13.8 mph 21.9 mph 0.00 in Snow Light Snow
3:58 PM 35.6 °F 27.1 °F 20.7 °F 55% 30.56 in 10.0 mi NE 12.7 mph 23.0 mph 0.00 in Snow Light Snow
4:58 PM 34.7 °F 26.9 °F 19.0 °F 53% 30.60 in 10.0 mi NNE 10.4 mph 19.6 mph N/A   Mostly Cloudy
5:15 PM 33.8 °F 26.4 °F 15.8 °F 48% 30.59 in 10.0 mi NE 9.2 mph 18.4 mph N/A   Mostly Cloudy
5:28 PM 33.8 °F 26.4 °F 14.0 °F 44% 30.59 in 10.0 mi NE 9.2 mph 17.3 mph N/A   Mostly Cloudy
5:58 PM 33.6 °F 26.8 °F 10.8 °F 39% 30.63 in 10.0 mi NE 8.1 mph - N/A   Overcast
6:58 PM 33.1 °F 26.1 °F 6.6 °F 33% 30.66 in 10.0 mi NE 8.1 mph - N/A   Mostly Cloudy
7:58 PM 32.2 °F 25.8 °F 1.6 °F 27% 30.69 in 10.0 mi NE 6.9 mph 18.4 mph N/A   Mostly Cloudy
8:58 PM 31.1 °F 22.4 °F -1.7 °F 25% 30.71 in 10.0 mi NE 10.4 mph - N/A   Scattered Clouds
9:58 PM 30.4 °F 20.5 °F -0.8 °F 26% 30.74 in 10.0 mi NNE 12.7 mph - N/A   Scattered Clouds
10:58 PM 29.8 °F 23.9 °F 0.7 °F 29% 30.74 in 10.0 mi NE 5.8 mph - N/A   Overcast
11:58 PM 29.3 °F 23.2 °F 0.7 °F 29% 30.74 in 10.0 mi NE 5.8 mph - N/A   Partly Cloudy